Time,TemperatureF,DewpointF,PressureIn,WindDirection,WindDirectionDegrees,WindSpeedMPH,WindSpeedGustMPH,Humidity,HourlyPrecipIn,Conditions,Clouds,dailyrainin,SolarRadiationWatts/m^2,SoftwareType,DateUTC
2013-03-02 00:00:00,7.2,4.1,30.30,WNW,292,0.0,0.0,87,0.00,,,0.00,0,Wunderground v.1.15,2013-03-02 06:00:00,
2013-03-02 00:05:00,7.6,4.8,30.30,WNW,292,0.0,0.0,88,0.00,,,0.00,0,Wunderground v.1.15,2013-03-02 06:05:00,
2013-03-02 00:10:00,8.1,5.5,30.30,WNW,292,1.0,1.0,89,0.00,,,0.00,0,Wunderground v.1.15,2013-03-02 06:10:00,
2013-03-02 00:15:00,8.8,6.5,30.30,WNW,292,0.0,2.0,90,0.00,,,0.00,0,Wunderground v.1.15,2013-03-02 06:15:00,
2013-03-02 00:20:00,9.1,6.5,30.30,WNW,292,1.0,1.0,89,0.00,,,0.00,0,Wunderground v.1.15,2013-03-02 06:20:00,
2013-03-02 00:25:00,9.5,6.9,30.30,WNW,292,0.0,2.0,89,0.00,,,0.00,0,Wunderground v.1.15,2013-03-02 06:25:00,
2013-03-02 00:30:00,9.8,7.2,30.30,WNW,292,2.0,2.0,89,0.00,,,0.00,0,Wunderground v.1.15,2013-03-02 06:30:00,
2013-03-02 00:35:00,10.1,7.5,30.30,WNW,292,0.0,2.0,89,0.00,,,0.00,0,Wunderground v.1.15,2013-03-02 06:35:00,
2013-03-02 00:48:00,12.0,9.4,30.30,NE,36,2.0,5.0,89,0.00,,,0.00,0,Wunderground v.1.15,2013-03-02 06:48:00,
2013-03-02 00:53:00,12.6,9.7,30.30,NNE,27,0.0,3.0,88,0.00,,,0.00,0,Wunderground v.1.15,2013-03-02 06:53:00,
2013-03-02 00:58:00,12.8,9.7,30.30,NNE,27,0.0,3.0,87,0.00,,,0.00,0,Wunderground v.1.15,2013-03-02 06:58:00,
2013-03-02 01:03:00,12.9,9.5,30.30,NNE,27,0.0,2.0,86,0.00,,,0.00,0,Wunderground v.1.15,2013-03-02 07:03:00,
2013-03-02 01:08:00,13.0,9.6,30.31,NNE,27,1.0,2.0,86,0.00,,,0.00,0,Wunderground v.1.15,2013-03-02 07:08:00,
2013-03-02 01:13:00,12.8,9.1,30.30,NNE,27,1.0,2.0,85,0.00,,,0.00,0,Wunderground v.1.15,2013-03-02 07:13:00,
2013-03-02 01:18:00,12.6,8.7,30.31,NNE,27,0.0,3.0,84,0.00,,,0.00,0,Wunderground v.1.15,2013-03-02 07:18:00,
2013-03-02 01:23:00,12.3,8.1,30.31,NNE,27,0.0,2.0,83,0.00,,,0.00,0,Wunderground v.1.15,2013-03-02 07:23:00,
2013-03-02 01:28:00,12.0,7.8,30.31,NNE,27,2.0,2.0,83,0.00,,,0.00,0,Wunderground v.1.15,2013-03-02 07:28:00,
2013-03-02 01:33:00,11.8,7.9,30.31,NNE,27,1.0,3.0,84,0.00,,,0.00,0,Wunderground v.1.15,2013-03-02 07:33:00,
2013-03-02 01:38:00,11.6,7.4,30.31,NNE,27,3.0,3.0,83,0.00,,,0.00,0,Wunderground v.1.15,2013-03-02 07:38:00,
2013-03-02 01:43:00,11.3,7.1,30.31,NNE,27,0.0,1.0,83,0.00,,,0.00,0,Wunderground v.1.15,2013-03-02 07:43:00,
2013-03-02 01:48:00,11.0,6.8,30.31,NNE,27,0.0,1.0,83,0.00,,,0.00,0,Wunderground v.1.15,2013-03-02 07:48:00,
2013-03-02 01:53:00,10.7,6.6,30.31,NNE,27,0.0,0.0,83,0.00,,,0.00,0,Wunderground v.1.15,2013-03-02 07:53:00,
2013-03-02 01:58:00,10.4,6.3,30.31,NNE,27,1.0,3.0,83,0.00,,,0.00,0,Wunderground v.1.15,2013-03-02 07:58:00,
2013-03-02 02:03:00,10.0,5.9,30.31,NNE,27,2.0,2.0,83,0.00,,,0.00,0,Wunderground v.1.15,2013-03-02 08:03:00,
2013-03-02 02:08:00,9.8,5.7,30.31,NNE,27,1.0,2.0,83,0.00,,,0.00,0,Wunderground v.1.15,2013-03-02 08:08:00,
2013-03-02 02:13:00,9.6,5.5,30.31,NNE,27,0.0,1.0,83,0.00,,,0.00,0,Wunderground v.1.15,2013-03-02 08:13:00,
2013-03-02 02:18:00,9.1,4.7,30.31,NNE,27,0.0,1.0,82,0.00,,,0.00,0,Wunderground v.1.15,2013-03-02 08:18:00,
2013-03-02 02:23:00,8.4,4.0,30.31,NNE,27,0.0,0.0,82,0.00,,,0.00,0,Wunderground v.1.15,2013-03-02 08:23:00,
2013-03-02 02:28:00,8.0,3.6,30.30,NNE,27,1.0,2.0,82,0.00,,,0.00,0,Wunderground v.1.15,2013-03-02 08:28:00,
2013-03-02 02:33:00,7.7,3.6,30.30,NNE,27,0.0,0.0,83,0.00,,,0.00,0,Wunderground v.1.15,2013-03-02 08:33:00,
2013-03-02 02:38:00,7.3,3.2,30.30,NNE,27,2.0,2.0,83,0.00,,,0.00,0,Wunderground v.1.15,2013-03-02 08:38:00,
2013-03-02 02:43:00,7.1,3.0,30.30,NNE,27,0.0,0.0,83,0.00,,,0.00,0,Wunderground v.1.15,2013-03-02 08:43:00,
2013-03-02 02:48:00,6.9,3.1,30.30,NNE,27,0.0,2.0,84,0.00,,,0.00,0,Wunderground v.1.15,2013-03-02 08:48:00,
2013-03-02 02:53:00,6.8,3.0,30.30,NNE,27,2.0,2.0,84,0.00,,,0.00,0,Wunderground v.1.15,2013-03-02 08:53:00,
2013-03-02 02:58:00,6.7,2.9,30.30,NNE,27,1.0,2.0,84,0.00,,,0.00,0,Wunderground v.1.15,2013-03-02 08:58:00,
2013-03-02 03:03:00,6.7,2.9,30.30,NNE,27,0.0,2.0,84,0.00,,,0.00,0,Wunderground v.1.15,2013-03-02 09:03:00,
2013-03-02 03:08:00,6.4,2.6,30.30,NNE,27,0.0,2.0,84,0.00,,,0.00,0,Wunderground v.1.15,2013-03-02 09:08:00,
2013-03-02 03:13:00,6.3,2.5,30.30,NNE,27,0.0,0.0,84,0.00,,,0.00,0,Wunderground v.1.15,2013-03-02 09:13:00,
2013-03-02 03:18:00,6.4,2.9,30.30,NNE,27,2.0,3.0,85,0.00,,,0.00,0,Wunderground v.1.15,2013-03-02 09:18:00,
2013-03-02 03:23:00,6.8,3.5,30.30,NNE,27,0.0,1.0,86,0.00,,,0.00,0,Wunderground v.1.15,2013-03-02 09:23:00,
2013-03-02 03:28:00,6.8,3.2,30.29,NNE,27,0.0,1.0,85,0.00,,,0.00,0,Wunderground v.1.15,2013-03-02 09:28:00,
2013-03-02 03:33:00,6.7,3.1,30.29,NNE,27,0.0,0.0,85,0.00,,,0.00,0,Wunderground v.1.15,2013-03-02 09:33:00,
2013-03-02 03:38:00,6.7,3.1,30.29,NNE,27,2.0,3.0,85,0.00,,,0.00,0,Wunderground v.1.15,2013-03-02 09:38:00,
2013-03-02 03:43:00,6.9,3.6,30.29,NNE,26,2.0,2.0,86,0.00,,,0.00,0,Wunderground v.1.15,2013-03-02 09:43:00,
2013-03-02 03:48:00,7.2,3.9,30.29,NNE,26,3.0,3.0,86,0.00,,,0.00,0,Wunderground v.1.15,2013-03-02 09:48:00,
2013-03-02 03:53:00,7.5,4.2,30.29,NNE,24,2.0,4.0,86,0.00,,,0.00,0,Wunderground v.1.15,2013-03-02 09:53:00,
2013-03-02 03:58:00,7.8,4.5,30.29,NNE,24,0.0,4.0,86,0.00,,,0.00,0,Wunderground v.1.15,2013-03-02 09:58:00,
2013-03-02 04:03:00,7.7,3.9,30.29,NNE,24,2.0,2.0,84,0.00,,,0.00,0,Wunderground v.1.15,2013-03-02 10:03:00,
2013-03-02 04:08:00,7.4,3.6,30.29,NNE,24,0.0,3.0,84,0.00,,,0.00,0,Wunderground v.1.15,2013-03-02 10:08:00,
2013-03-02 04:13:00,7.3,3.5,30.29,NNE,24,0.0,1.0,84,0.00,,,0.00,0,Wunderground v.1.15,2013-03-02 10:13:00,
2013-03-02 04:18:00,7.0,3.2,30.29,NNE,24,0.0,1.0,84,0.00,,,0.00,0,Wunderground v.1.15,2013-03-02 10:18:00,
2013-03-02 04:23:00,6.6,2.5,30.29,NNE,24,0.0,1.0,83,0.00,,,0.00,0,Wunderground v.1.15,2013-03-02 10:23:00,
2013-03-02 04:28:00,6.3,2.5,30.30,NNE,24,2.0,2.0,84,0.00,,,0.00,0,Wunderground v.1.15,2013-03-02 10:28:00,
2013-03-02 04:33:00,6.3,2.8,30.29,NNE,24,1.0,3.0,85,0.00,,,0.00,0,Wunderground v.1.15,2013-03-02 10:33:00,
2013-03-02 04:39:00,6.3,2.8,30.30,NNE,24,2.0,3.0,85,0.00,,,0.00,0,Wunderground v.1.15,2013-03-02 10:39:00,
2013-03-02 04:44:00,6.7,3.4,30.30,NNE,24,2.0,3.0,86,0.00,,,0.00,0,Wunderground v.1.15,2013-03-02 10:44:00,
2013-03-02 04:48:00,7.2,4.1,30.29,NNE,24,0.0,4.0,87,0.00,,,0.00,0,Wunderground v.1.15,2013-03-02 10:48:00,
2013-03-02 04:54:00,7.5,4.2,30.29,NNE,24,1.0,2.0,86,0.00,,,0.00,0,Wunderground v.1.15,2013-03-02 10:54:00,
2013-03-02 04:59:00,7.6,4.3,30.30,NNE,24,0.0,2.0,86,0.00,,,0.00,0,Wunderground v.1.15,2013-03-02 10:59:00,
2013-03-02 05:04:00,7.5,3.9,30.29,NNE,24,2.0,2.0,85,0.00,,,0.00,0,Wunderground v.1.15,2013-03-02 11:04:00,
2013-03-02 05:09:00,7.4,3.8,30.30,NNE,24,1.0,2.0,85,0.00,,,0.00,0,Wunderground v.1.15,2013-03-02 11:09:00,
2013-03-02 05:14:00,7.5,4.2,30.30,NNE,24,0.0,2.0,86,0.00,,,0.00,0,Wunderground v.1.15,2013-03-02 11:14:00,
2013-03-02 05:19:00,7.5,4.2,30.30,NNE,24,0.0,2.0,86,0.00,,,0.00,0,Wunderground v.1.15,2013-03-02 11:19:00,
2013-03-02 05:24:00,7.4,3.8,30.30,NNE,24,1.0,1.0,85,0.00,,,0.00,0,Wunderground v.1.15,2013-03-02 11:24:00,
2013-03-02 05:29:00,7.3,3.7,30.30,NNE,24,1.0,3.0,85,0.00,,,0.00,0,Wunderground v.1.15,2013-03-02 11:29:00,
2013-03-02 05:34:00,7.4,4.1,30.30,NNE,24,0.0,2.0,86,0.00,,,0.00,0,Wunderground v.1.15,2013-03-02 11:34:00,
2013-03-02 05:39:00,7.3,3.7,30.30,NNE,24,2.0,2.0,85,0.00,,,0.00,0,Wunderground v.1.15,2013-03-02 11:39:00,
2013-03-02 05:44:00,7.2,3.6,30.30,NNE,24,2.0,3.0,85,0.00,,,0.00,0,Wunderground v.1.15,2013-03-02 11:44:00,
2013-03-02 05:49:00,7.3,4.0,30.30,NNE,24,0.0,3.0,86,0.00,,,0.00,0,Wunderground v.1.15,2013-03-02 11:49:00,
2013-03-02 05:54:00,7.3,4.0,30.30,NNE,24,1.0,2.0,86,0.00,,,0.00,0,Wunderground v.1.15,2013-03-02 11:54:00,
2013-03-02 05:59:00,7.4,4.1,30.30,NNE,24,0.0,2.0,86,0.00,,,0.00,0,Wunderground v.1.15,2013-03-02 11:59:00,
2013-03-02 06:04:00,7.2,3.6,30.30,NNE,24,0.0,1.0,85,0.00,,,0.00,0,Wunderground v.1.15,2013-03-02 12:04:00,
2013-03-02 06:09:00,7.0,3.4,30.30,NNE,24,0.0,2.0,85,0.00,,,0.00,0,Wunderground v.1.15,2013-03-02 12:09:00,
2013-03-02 06:14:00,7.0,3.4,30.31,NNE,24,2.0,2.0,85,0.00,,,0.00,0,Wunderground v.1.15,2013-03-02 12:14:00,
2013-03-02 06:19:00,7.2,3.9,30.31,NW,323,2.0,4.0,86,0.00,,,0.00,0,Wunderground v.1.15,2013-03-02 12:19:00,
2013-03-02 06:24:00,7.7,4.4,30.31,NW,323,2.0,4.0,86,0.00,,,0.00,0,Wunderground v.1.15,2013-03-02 12:24:00,
2013-03-02 06:29:00,8.2,5.1,30.30,NW,323,1.0,4.0,87,0.00,,,0.00,5,Wunderground v.1.15,2013-03-02 12:29:00,
2013-03-02 06:34:00,8.6,5.3,30.31,NW,323,2.0,5.0,86,0.00,,,0.00,7,Wunderground v.1.15,2013-03-02 12:34:00,
2013-03-02 06:39:00,8.9,5.6,30.31,NW,320,3.0,6.0,86,0.00,,,0.00,12,Wunderground v.1.15,2013-03-02 12:39:00,
2013-03-02 06:44:00,9.5,6.2,30.31,NW,319,2.0,5.0,86,0.00,,,0.00,26,Wunderground v.1.15,2013-03-02 12:44:00,
2013-03-02 06:49:00,10.0,6.6,30.31,NW,319,3.0,5.0,86,0.00,,,0.00,37,Wunderground v.1.15,2013-03-02 12:49:00,
2013-03-02 06:54:00,10.4,7.0,30.31,NW,319,1.0,3.0,86,0.00,,,0.00,47,Wunderground v.1.15,2013-03-02 12:54:00,
2013-03-02 06:59:00,10.6,7.0,30.31,NW,319,1.0,4.0,85,0.00,,,0.00,62,Wunderground v.1.15,2013-03-02 12:59:00,
2013-03-02 07:04:00,11.0,7.6,30.31,NW,319,0.0,3.0,86,0.00,,,0.00,72,Wunderground v.1.15,2013-03-02 13:04:00,
2013-03-02 07:09:00,11.4,7.8,30.31,NW,319,1.0,3.0,85,0.00,,,0.00,90,Wunderground v.1.15,2013-03-02 13:09:00,
2013-03-02 07:14:00,12.0,8.4,30.31,NW,319,2.0,5.0,85,0.00,,,0.00,114,Wunderground v.1.15,2013-03-02 13:14:00,
2013-03-02 07:19:00,12.7,9.0,30.31,NNW,336,3.0,7.0,85,0.00,,,0.00,146,Wunderground v.1.15,2013-03-02 13:19:00,
2013-03-02 07:24:00,13.4,9.5,30.31,NW,326,4.0,5.0,84,0.00,,,0.00,163,Wunderground v.1.15,2013-03-02 13:24:00,
2013-03-02 07:29:00,14.0,9.8,30.31,NNW,327,3.0,7.0,83,0.00,,,0.00,176,Wunderground v.1.15,2013-03-02 13:29:00,
2013-03-02 07:34:00,14.5,10.0,30.31,NNW,344,6.0,10.0,82,0.00,,,0.00,218,Wunderground v.1.15,2013-03-02 13:34:00,
2013-03-02 07:39:00,14.9,9.8,30.31,NNE,15,4.0,10.0,80,0.00,,,0.00,220,Wunderground v.1.15,2013-03-02 13:39:00,
2013-03-02 07:44:00,15.1,9.8,30.31,NW,320,5.0,10.0,79,0.00,,,0.00,195,Wunderground v.1.15,2013-03-02 13:44:00,
2013-03-02 07:49:00,15.2,9.9,30.31,NNW,330,3.0,10.0,79,0.00,,,0.00,204,Wunderground v.1.15,2013-03-02 13:49:00,
2013-03-02 07:54:00,15.3,9.7,30.31,NW,317,5.0,8.0,78,0.00,,,0.00,250,Wunderground v.1.15,2013-03-02 13:54:00,
2013-03-02 07:59:00,15.4,9.5,30.31,NW,304,3.0,10.0,77,0.00,,,0.00,220,Wunderground v.1.15,2013-03-02 13:59:00,
2013-03-02 08:04:00,15.4,9.5,30.31,NNW,344,7.0,8.0,77,0.00,,,0.00,155,Wunderground v.1.15,2013-03-02 14:04:00,
2013-03-02 08:09:00,15.1,8.9,30.31,NW,319,5.0,10.0,76,0.00,,,0.00,151,Wunderground v.1.15,2013-03-02 14:09:00,
2013-03-02 08:14:00,14.9,8.7,30.31,NW,309,4.0,7.0,76,0.00,,,0.00,176,Wunderground v.1.15,2013-03-02 14:14:00,
2013-03-02 08:19:00,14.8,8.6,30.31,NNW,346,2.0,8.0,76,0.00,,,0.00,283,Wunderground v.1.15,2013-03-02 14:19:00,
2013-03-02 08:24:00,14.9,8.7,30.31,NW,319,3.0,9.0,76,0.00,,,0.00,357,Wunderground v.1.15,2013-03-02 14:24:00,
2013-03-02 08:29:00,15.1,8.9,30.31,NNW,333,5.0,9.0,76,0.00,,,0.00,364,Wunderground v.1.15,2013-03-02 14:29:00,
2013-03-02 08:34:00,15.4,9.2,30.31,North,5,6.0,7.0,76,0.00,,,0.00,380,Wunderground v.1.15,2013-03-02 14:34:00,
2013-03-02 08:39:00,15.5,9.0,30.31,NNW,330,5.0,9.0,75,0.00,,,0.00,387,Wunderground v.1.15,2013-03-02 14:39:00,
2013-03-02 08:44:00,15.6,9.1,30.31,NNW,332,3.0,9.0,75,0.00,,,0.00,299,Wunderground v.1.15,2013-03-02 14:44:00,
2013-03-02 08:49:00,15.6,9.1,30.31,NNW,333,3.0,9.0,75,0.00,,,0.00,431,Wunderground v.1.15,2013-03-02 14:49:00,
2013-03-02 08:54:00,15.9,9.4,30.31,North,5,4.0,9.0,75,0.00,,,0.00,294,Wunderground v.1.15,2013-03-02 14:54:00,
2013-03-02 08:59:00,15.9,9.1,30.31,North,5,10.0,11.0,74,0.00,,,0.00,466,Wunderground v.1.15,2013-03-02 14:59:00,
2013-03-02 09:04:00,16.0,9.2,30.31,NNW,327,8.0,11.0,74,0.00,,,0.00,475,Wunderground v.1.15,2013-03-02 15:04:00,
2013-03-02 09:09:00,16.1,9.3,30.31,NW,316,3.0,11.0,74,0.00,,,0.00,478,Wunderground v.1.15,2013-03-02 15:09:00,
2013-03-02 09:14:00,16.3,9.8,30.30,NNW,327,4.0,7.0,75,0.00,,,0.00,499,Wunderground v.1.15,2013-03-02 15:14:00,
2013-03-02 09:19:00,16.7,9.8,30.31,NNW,333,4.0,9.0,74,0.00,,,0.00,512,Wunderground v.1.15,2013-03-02 15:19:00,
2013-03-02 09:24:00,16.8,9.9,30.31,North,5,5.0,9.0,74,0.00,,,0.00,522,Wunderground v.1.15,2013-03-02 15:24:00,
2013-03-02 09:29:00,16.8,9.9,30.31,NNW,340,8.0,9.0,74,0.00,,,0.00,534,Wunderground v.1.15,2013-03-02 15:29:00,
2013-03-02 09:34:00,17.0,10.1,30.31,NNE,14,4.0,9.0,74,0.00,,,0.00,547,Wunderground v.1.15,2013-03-02 15:34:00,
2013-03-02 09:39:00,17.0,10.1,30.31,NE,35,7.0,10.0,74,0.00,,,0.00,559,Wunderground v.1.15,2013-03-02 15:39:00,
2013-03-02 09:44:00,17.5,10.6,30.31,NW,319,3.0,8.0,74,0.00,,,0.00,570,Wunderground v.1.15,2013-03-02 15:44:00,
2013-03-02 09:49:00,17.7,10.5,30.31,North,360,5.0,10.0,73,0.00,,,0.00,582,Wunderground v.1.15,2013-03-02 15:49:00,
2013-03-02 09:54:00,17.7,10.5,30.31,NNE,24,6.0,9.0,73,0.00,,,0.00,591,Wunderground v.1.15,2013-03-02 15:54:00,
2013-03-02 09:59:00,17.8,10.9,30.31,NNE,20,4.0,9.0,74,0.00,,,0.00,599,Wunderground v.1.15,2013-03-02 15:59:00,
2013-03-02 10:04:00,18.2,11.3,30.31,NW,317,6.0,8.0,74,0.00,,,0.00,610,Wunderground v.1.15,2013-03-02 16:04:00,
2013-03-02 10:09:00,19.2,12.0,30.31,NW,313,4.0,10.0,73,0.00,,,0.00,617,Wunderground v.1.15,2013-03-02 16:09:00,
2013-03-02 10:14:00,19.7,11.8,30.31,NNW,327,3.0,10.0,71,0.00,,,0.00,628,Wunderground v.1.15,2013-03-02 16:14:00,
2013-03-02 10:19:00,19.9,12.0,30.31,NNW,333,1.0,10.0,71,0.00,,,0.00,638,Wunderground v.1.15,2013-03-02 16:19:00,
2013-03-02 10:24:00,20.2,12.3,30.31,NW,320,4.0,12.0,71,0.00,,,0.00,643,Wunderground v.1.15,2013-03-02 16:24:00,
2013-03-02 10:29:00,20.5,12.3,30.31,North,355,3.0,12.0,70,0.00,,,0.00,652,Wunderground v.1.15,2013-03-02 16:29:00,
2013-03-02 10:34:00,20.8,12.6,30.31,North,355,3.0,8.0,70,0.00,,,0.00,661,Wunderground v.1.15,2013-03-02 16:34:00,
2013-03-02 10:39:00,20.6,12.0,30.30,North,5,5.0,9.0,69,0.00,,,0.00,668,Wunderground v.1.15,2013-03-02 16:39:00,
2013-03-02 10:44:00,20.6,12.4,30.30,NE,51,8.0,10.0,70,0.00,,,0.00,675,Wunderground v.1.15,2013-03-02 16:44:00,
2013-03-02 10:49:00,20.2,12.0,30.30,NW,305,4.0,10.0,70,0.00,,,0.00,682,Wunderground v.1.15,2013-03-02 16:49:00,
2013-03-02 10:54:00,20.5,12.3,30.31,NNW,329,3.0,7.0,70,0.00,,,0.00,689,Wunderground v.1.15,2013-03-02 16:54:00,
2013-03-02 10:59:00,21.1,12.8,30.31,NNE,13,4.0,9.0,70,0.00,,,0.00,693,Wunderground v.1.15,2013-03-02 16:59:00,
2013-03-02 11:04:00,21.4,12.8,30.30,North,355,6.0,10.0,69,0.00,,,0.00,700,Wunderground v.1.15,2013-03-02 17:04:00,
2013-03-02 11:09:00,21.2,12.3,30.30,North,5,5.0,10.0,68,0.00,,,0.00,705,Wunderground v.1.15,2013-03-02 17:09:00,
2013-03-02 11:14:00,21.6,13.3,30.30,NW,321,7.0,9.0,70,0.00,,,0.00,707,Wunderground v.1.15,2013-03-02 17:14:00,
2013-03-02 11:19:00,22.2,13.2,30.30,NNE,17,4.0,9.0,68,0.00,,,0.00,714,Wunderground v.1.15,2013-03-02 17:19:00,
2013-03-02 11:24:00,22.3,13.3,30.30,NNW,333,3.0,6.0,68,0.00,,,0.00,719,Wunderground v.1.15,2013-03-02 17:24:00,
2013-03-02 11:29:00,22.3,13.0,30.30,NNW,342,3.0,9.0,67,0.00,,,0.00,721,Wunderground v.1.15,2013-03-02 17:29:00,
2013-03-02 11:34:00,22.4,13.1,30.30,NNW,340,6.0,9.0,67,0.00,,,0.00,724,Wunderground v.1.15,2013-03-02 17:34:00,
2013-03-02 11:39:00,22.6,13.6,30.30,North,5,7.0,9.0,68,0.00,,,0.00,726,Wunderground v.1.15,2013-03-02 17:39:00,
2013-03-02 11:44:00,22.3,12.7,30.30,NE,35,6.0,8.0,66,0.00,,,0.00,728,Wunderground v.1.15,2013-03-02 17:44:00,
2013-03-02 11:49:00,21.9,13.0,30.29,North,9,6.0,8.0,68,0.00,,,0.00,728,Wunderground v.1.15,2013-03-02 17:49:00,
2013-03-02 11:54:00,21.7,13.1,30.29,NNE,12,5.0,7.0,69,0.00,,,0.00,729,Wunderground v.1.15,2013-03-02 17:54:00,
2013-03-02 11:59:00,22.1,13.5,30.29,North,360,3.0,8.0,69,0.00,,,0.00,729,Wunderground v.1.15,2013-03-02 17:59:00,
2013-03-02 12:04:00,22.5,13.5,30.29,North,360,3.0,7.0,68,0.00,,,0.00,733,Wunderground v.1.15,2013-03-02 18:04:00,
2013-03-02 12:09:00,23.0,14.0,30.29,North,350,3.0,7.0,68,0.00,,,0.00,731,Wunderground v.1.15,2013-03-02 18:09:00,
2013-03-02 12:14:00,23.0,13.7,30.29,NW,320,2.0,5.0,67,0.00,,,0.00,733,Wunderground v.1.15,2013-03-02 18:14:00,
2013-03-02 12:19:00,23.2,13.9,30.28,North,355,6.0,7.0,67,0.00,,,0.00,729,Wunderground v.1.15,2013-03-02 18:19:00,
2013-03-02 12:24:00,23.3,14.0,30.28,NW,310,5.0,6.0,67,0.00,,,0.00,728,Wunderground v.1.15,2013-03-02 18:24:00,
2013-03-02 12:29:00,23.3,14.0,30.28,NNE,14,3.0,6.0,67,0.00,,,0.00,724,Wunderground v.1.15,2013-03-02 18:29:00,
2013-03-02 12:34:00,23.5,14.1,30.27,NE,39,7.0,8.0,67,0.00,,,0.00,724,Wunderground v.1.15,2013-03-02 18:34:00,
2013-03-02 12:39:00,23.4,13.7,30.27,NNE,20,5.0,8.0,66,0.00,,,0.00,721,Wunderground v.1.15,2013-03-02 18:39:00,
2013-03-02 12:44:00,23.2,13.5,30.27,NNE,13,4.0,7.0,66,0.00,,,0.00,717,Wunderground v.1.15,2013-03-02 18:44:00,
2013-03-02 12:49:00,23.1,13.8,30.27,NE,55,6.0,7.0,67,0.00,,,0.00,715,Wunderground v.1.15,2013-03-02 18:49:00,
2013-03-02 12:54:00,23.2,14.2,30.27,North,355,5.0,8.0,68,0.00,,,0.00,710,Wunderground v.1.15,2013-03-02 18:54:00,
2013-03-02 12:59:00,23.5,13.8,30.27,NNE,26,5.0,8.0,66,0.00,,,0.00,705,Wunderground v.1.15,2013-03-02 18:59:00,
2013-03-02 13:04:00,23.4,13.4,30.26,NE,50,0.0,6.0,65,0.00,,,0.00,700,Wunderground v.1.15,2013-03-02 19:04:00,
2013-03-02 13:09:00,23.8,14.1,30.26,NW,323,2.0,7.0,66,0.00,,,0.00,694,Wunderground v.1.15,2013-03-02 19:09:00,
2013-03-02 13:14:00,24.6,14.5,30.26,NW,319,4.0,9.0,65,0.00,,,0.00,689,Wunderground v.1.15,2013-03-02 19:14:00,
2013-03-02 13:19:00,25.2,14.7,30.26,NW,319,4.0,9.0,64,0.00,,,0.00,684,Wunderground v.1.15,2013-03-02 19:19:00,
2013-03-02 13:24:00,25.8,14.9,30.26,NW,324,7.0,9.0,63,0.00,,,0.00,677,Wunderground v.1.15,2013-03-02 19:24:00,
2013-03-02 13:29:00,26.2,14.6,30.26,NW,321,3.0,10.0,61,0.00,,,0.00,671,Wunderground v.1.15,2013-03-02 19:29:00,
2013-03-02 13:34:00,26.1,14.5,30.26,NW,310,3.0,8.0,61,0.00,,,0.00,663,Wunderground v.1.15,2013-03-02 19:34:00,
2013-03-02 13:39:00,26.1,14.5,30.26,NW,325,1.0,8.0,61,0.00,,,0.00,657,Wunderground v.1.15,2013-03-02 19:39:00,
2013-03-02 13:44:00,25.7,14.1,30.26,NW,321,1.0,9.0,61,0.00,,,0.00,649,Wunderground v.1.15,2013-03-02 19:44:00,
2013-03-02 13:49:00,25.5,14.3,30.26,WNW,296,6.0,9.0,62,0.00,,,0.00,640,Wunderground v.1.15,2013-03-02 19:49:00,
2013-03-02 13:54:00,25.7,14.1,30.26,North,5,2.0,7.0,61,0.00,,,0.00,629,Wunderground v.1.15,2013-03-02 19:54:00,
2013-03-02 13:58:00,26.0,14.4,30.25,North,5,3.0,7.0,61,0.00,,,0.00,621,Wunderground v.1.15,2013-03-02 19:58:00,
2013-03-02 14:04:00,26.0,14.0,30.25,NNE,28,6.0,9.0,60,0.00,,,0.00,610,Wunderground v.1.15,2013-03-02 20:04:00,
2013-03-02 14:08:00,25.6,13.2,30.25,North,5,3.0,10.0,59,0.00,,,0.00,601,Wunderground v.1.15,2013-03-02 20:08:00,
2013-03-02 14:13:00,25.5,13.1,30.25,North,355,4.0,8.0,59,0.00,,,0.00,592,Wunderground v.1.15,2013-03-02 20:13:00,
2013-03-02 14:18:00,25.7,13.7,30.25,NNW,338,3.0,9.0,60,0.00,,,0.00,580,Wunderground v.1.15,2013-03-02 20:18:00,
2013-03-02 14:23:00,25.8,13.4,30.25,North,5,5.0,9.0,59,0.00,,,0.00,570,Wunderground v.1.15,2013-03-02 20:23:00,
2013-03-02 14:28:00,26.0,13.2,30.25,NW,314,7.0,9.0,58,0.00,,,0.00,559,Wunderground v.1.15,2013-03-02 20:28:00,
2013-03-02 14:33:00,26.2,13.0,30.25,North,5,3.0,6.0,57,0.00,,,0.00,545,Wunderground v.1.15,2013-03-02 20:33:00,
2013-03-02 14:38:00,26.2,13.0,30.25,North,360,3.0,9.0,57,0.00,,,0.00,533,Wunderground v.1.15,2013-03-02 20:38:00,
2013-03-02 14:43:00,26.7,13.5,30.24,NW,323,4.0,7.0,57,0.00,,,0.00,522,Wunderground v.1.15,2013-03-02 20:43:00,
2013-03-02 14:48:00,27.0,13.4,30.24,NW,304,4.0,9.0,56,0.00,,,0.00,510,Wunderground v.1.15,2013-03-02 20:48:00,
2013-03-02 14:53:00,26.9,13.3,30.25,NNW,341,5.0,7.0,56,0.00,,,0.00,497,Wunderground v.1.15,2013-03-02 20:53:00,
2013-03-02 14:58:00,27.0,13.4,30.24,WNW,292,4.0,8.0,56,0.00,,,0.00,483,Wunderground v.1.15,2013-03-02 20:58:00,
2013-03-02 15:03:00,27.2,12.7,30.25,NNW,333,4.0,8.0,54,0.00,,,0.00,469,Wunderground v.1.15,2013-03-02 21:03:00,
2013-03-02 15:08:00,27.2,12.7,30.24,NW,321,2.0,8.0,54,0.00,,,0.00,455,Wunderground v.1.15,2013-03-02 21:08:00,
2013-03-02 15:13:00,27.2,12.7,30.24,NNW,347,3.0,8.0,54,0.00,,,0.00,441,Wunderground v.1.15,2013-03-02 21:13:00,
2013-03-02 15:18:00,27.1,12.6,30.24,North,355,7.0,8.0,54,0.00,,,0.00,429,Wunderground v.1.15,2013-03-02 21:18:00,
2013-03-02 15:23:00,26.8,12.4,30.24,North,10,3.0,7.0,54,0.00,,,0.00,413,Wunderground v.1.15,2013-03-02 21:23:00,
2013-03-02 15:28:00,26.5,12.1,30.24,NNE,21,6.0,7.0,54,0.00,,,0.00,397,Wunderground v.1.15,2013-03-02 21:28:00,
2013-03-02 15:33:00,26.4,12.0,30.24,NE,36,5.0,6.0,54,0.00,,,0.00,383,Wunderground v.1.15,2013-03-02 21:33:00,
2013-03-02 15:38:00,26.3,12.3,30.24,NE,36,3.0,6.0,55,0.00,,,0.00,367,Wunderground v.1.15,2013-03-02 21:38:00,
2013-03-02 15:43:00,26.3,12.3,30.24,NNE,28,4.0,6.0,55,0.00,,,0.00,352,Wunderground v.1.15,2013-03-02 21:43:00,
2013-03-02 15:48:00,26.4,12.4,30.24,NNW,333,0.0,7.0,55,0.00,,,0.00,338,Wunderground v.1.15,2013-03-02 21:48:00,
2013-03-02 15:53:00,26.5,12.5,30.24,North,351,3.0,4.0,55,0.00,,,0.00,322,Wunderground v.1.15,2013-03-02 21:53:00,
2013-03-02 15:58:00,26.5,12.9,30.24,North,355,2.0,4.0,56,0.00,,,0.00,306,Wunderground v.1.15,2013-03-02 21:58:00,
2013-03-02 16:03:00,26.4,12.8,30.24,North,5,2.0,4.0,56,0.00,,,0.00,288,Wunderground v.1.15,2013-03-02 22:03:00,
2013-03-02 16:08:00,26.4,12.4,30.24,NE,38,4.0,6.0,55,0.00,,,0.00,269,Wunderground v.1.15,2013-03-02 22:08:00,
2013-03-02 16:13:00,26.3,12.3,30.24,NNE,33,3.0,5.0,55,0.00,,,0.00,248,Wunderground v.1.15,2013-03-02 22:13:00,
2013-03-02 16:18:00,26.1,12.1,30.24,NNE,33,2.0,5.0,55,0.00,,,0.00,230,Wunderground v.1.15,2013-03-02 22:18:00,
2013-03-02 16:23:00,26.0,12.0,30.24,NNE,33,2.0,4.0,55,0.00,,,0.00,209,Wunderground v.1.15,2013-03-02 22:23:00,
2013-03-02 16:28:00,26.0,12.0,30.24,NNE,33,3.0,4.0,55,0.00,,,0.00,132,Wunderground v.1.15,2013-03-02 22:28:00,
2013-03-02 16:33:00,26.0,12.0,30.24,NNE,33,3.0,3.0,55,0.00,,,0.00,76,Wunderground v.1.15,2013-03-02 22:33:00,
2013-03-02 16:38:00,26.0,12.0,30.24,NNE,33,0.0,4.0,55,0.00,,,0.00,84,Wunderground v.1.15,2013-03-02 22:38:00,
2013-03-02 16:43:00,25.9,11.9,30.24,NNE,33,2.0,3.0,55,0.00,,,0.00,53,Wunderground v.1.15,2013-03-02 22:43:00,
2013-03-02 16:48:00,25.8,11.8,30.24,NNE,33,2.0,3.0,55,0.00,,,0.00,39,Wunderground v.1.15,2013-03-02 22:48:00,
2013-03-02 16:53:00,25.8,11.8,30.24,NNE,33,1.0,2.0,55,0.00,,,0.00,40,Wunderground v.1.15,2013-03-02 22:53:00,
2013-03-02 16:58:00,25.8,11.8,30.24,NNE,33,1.0,3.0,55,0.00,,,0.00,37,Wunderground v.1.15,2013-03-02 22:58:00,
2013-03-02 17:03:00,25.6,11.7,30.24,NNE,33,3.0,4.0,55,0.00,,,0.00,33,Wunderground v.1.15,2013-03-02 23:03:00,
2013-03-02 17:08:00,25.2,11.3,30.24,NNE,33,2.0,4.0,55,0.00,,,0.00,30,Wunderground v.1.15,2013-03-02 23:08:00,
2013-03-02 17:13:00,25.0,11.5,30.24,NNE,33,0.0,3.0,56,0.00,,,0.00,28,Wunderground v.1.15,2013-03-02 23:13:00,
2013-03-02 17:18:00,24.9,11.4,30.24,NNE,33,0.0,3.0,56,0.00,,,0.00,21,Wunderground v.1.15,2013-03-02 23:18:00,
2013-03-02 17:23:00,24.8,11.7,30.24,NNE,33,0.0,0.0,57,0.00,,,0.00,18,Wunderground v.1.15,2013-03-02 23:23:00,
2013-03-02 17:28:00,24.6,11.5,30.25,NNE,33,0.0,0.0,57,0.00,,,0.00,16,Wunderground v.1.15,2013-03-02 23:28:00,
2013-03-02 17:33:00,24.4,11.3,30.25,NNE,33,0.0,0.0,57,0.00,,,0.00,14,Wunderground v.1.15,2013-03-02 23:33:00,
2013-03-02 17:38:00,24.2,11.5,30.25,NNE,33,0.0,0.0,58,0.00,,,0.00,11,Wunderground v.1.15,2013-03-02 23:38:00,
2013-03-02 17:43:00,23.9,11.3,30.25,NNE,33,0.0,0.0,58,0.00,,,0.00,9,Wunderground v.1.15,2013-03-02 23:43:00,
2013-03-02 17:48:00,23.6,11.4,30.25,NNE,33,0.0,0.0,59,0.00,,,0.00,5,Wunderground v.1.15,2013-03-02 23:48:00,
2013-03-02 17:53:00,23.3,11.1,30.25,NNE,33,0.0,0.0,59,0.00,,,0.00,0,Wunderground v.1.15,2013-03-02 23:53:00,
2013-03-02 17:58:00,23.0,11.2,30.25,NNE,33,0.0,0.0,60,0.00,,,0.00,0,Wunderground v.1.15,2013-03-02 23:58:00,
2013-03-02 18:03:00,22.7,10.9,30.25,NNE,33,0.0,0.0,60,0.00,,,0.00,0,Wunderground v.1.15,2013-03-03 00:03:00,
2013-03-02 18:08:00,22.5,11.1,30.25,NNE,33,0.0,0.0,61,0.00,,,0.00,0,Wunderground v.1.15,2013-03-03 00:08:00,
2013-03-02 18:13:00,22.2,10.8,30.25,NNE,33,0.0,0.0,61,0.00,,,0.00,0,Wunderground v.1.15,2013-03-03 00:13:00,
2013-03-02 18:18:00,21.6,10.6,30.25,NNE,33,0.0,0.0,62,0.00,,,0.00,0,Wunderground v.1.15,2013-03-03 00:18:00,
2013-03-02 18:23:00,21.1,10.5,30.25,NNE,33,0.0,0.0,63,0.00,,,0.00,0,Wunderground v.1.15,2013-03-03 00:23:00,
2013-03-02 18:28:00,20.5,10.2,30.25,NNE,33,0.0,0.0,64,0.00,,,0.00,0,Wunderground v.1.15,2013-03-03 00:28:00,
2013-03-02 18:33:00,19.9,10.0,30.25,NNE,33,0.0,0.0,65,0.00,,,0.00,0,Wunderground v.1.15,2013-03-03 00:33:00,
2013-03-02 18:38:00,19.3,9.4,30.25,NNE,33,0.0,0.0,65,0.00,,,0.00,0,Wunderground v.1.15,2013-03-03 00:38:00,
2013-03-02 18:43:00,18.6,9.1,30.25,NNE,33,0.0,0.0,66,0.00,,,0.00,0,Wunderground v.1.15,2013-03-03 00:43:00,
2013-03-02 18:48:00,18.2,9.4,30.25,NNE,33,0.0,0.0,68,0.00,,,0.00,0,Wunderground v.1.15,2013-03-03 00:48:00,
2013-03-02 18:53:00,17.7,8.9,30.25,NNE,33,0.0,0.0,68,0.00,,,0.00,0,Wunderground v.1.15,2013-03-03 00:53:00,
2013-03-02 18:58:00,17.1,8.0,30.25,NNE,33,0.0,0.0,67,0.00,,,0.00,0,Wunderground v.1.15,2013-03-03 00:58:00,
2013-03-02 19:03:00,16.5,8.1,30.25,NNE,33,0.0,0.0,69,0.00,,,0.00,0,Wunderground v.1.15,2013-03-03 01:03:00,
2013-03-02 19:08:00,16.1,8.0,30.25,NNE,33,0.0,0.0,70,0.00,,,0.00,0,Wunderground v.1.15,2013-03-03 01:08:00,
2013-03-02 19:13:00,15.8,8.1,30.25,NNE,33,0.0,0.0,71,0.00,,,0.00,0,Wunderground v.1.15,2013-03-03 01:13:00,
2013-03-02 19:18:00,15.5,7.5,30.25,NNE,33,0.0,0.0,70,0.00,,,0.00,0,Wunderground v.1.15,2013-03-03 01:18:00,
2013-03-02 19:23:00,14.9,6.9,30.25,NNE,33,0.0,0.0,70,0.00,,,0.00,0,Wunderground v.1.15,2013-03-03 01:23:00,
2013-03-02 19:28:00,14.5,6.8,30.25,NNE,33,0.0,0.0,71,0.00,,,0.00,0,Wunderground v.1.15,2013-03-03 01:28:00,
2013-03-02 19:33:00,14.0,6.3,30.25,NNE,33,0.0,0.0,71,0.00,,,0.00,0,Wunderground v.1.15,2013-03-03 01:33:00,
2013-03-02 19:38:00,13.5,5.8,30.25,NNE,33,0.0,0.0,71,0.00,,,0.00,0,Wunderground v.1.15,2013-03-03 01:38:00,
2013-03-02 19:43:00,13.1,5.8,30.25,NNE,33,0.0,0.0,72,0.00,,,0.00,0,Wunderground v.1.15,2013-03-03 01:43:00,
2013-03-02 19:48:00,13.0,6.3,30.25,NNE,33,0.0,0.0,74,0.00,,,0.00,0,Wunderground v.1.15,2013-03-03 01:48:00,
2013-03-02 19:53:00,13.0,6.6,30.25,NNE,33,0.0,0.0,75,0.00,,,0.00,0,Wunderground v.1.15,2013-03-03 01:53:00,
2013-03-02 19:58:00,13.0,6.9,30.25,NNE,33,0.0,0.0,76,0.00,,,0.00,0,Wunderground v.1.15,2013-03-03 01:58:00,
2013-03-02 20:03:00,13.1,7.0,30.25,NNE,33,0.0,0.0,76,0.00,,,0.00,0,Wunderground v.1.15,2013-03-03 02:03:00,
2013-03-02 20:08:00,13.0,6.9,30.25,NNE,33,0.0,0.0,76,0.00,,,0.00,0,Wunderground v.1.15,2013-03-03 02:08:00,
2013-03-02 20:13:00,12.9,6.8,30.25,NNE,33,0.0,0.0,76,0.00,,,0.00,0,Wunderground v.1.15,2013-03-03 02:13:00,
2013-03-02 20:24:00,11.9,5.5,30.25,NNE,33,0.0,0.0,75,0.00,,,0.00,0,Wunderground v.1.15,2013-03-03 02:24:00,
2013-03-02 20:34:00,11.1,4.7,30.25,NNE,33,0.0,0.0,75,0.00,,,0.00,0,Wunderground v.1.15,2013-03-03 02:34:00,
2013-03-02 20:44:00,10.1,4.0,30.25,NNE,33,0.0,0.0,76,0.00,,,0.00,0,Wunderground v.1.15,2013-03-03 02:44:00,
2013-03-02 20:54:00,9.4,3.6,30.25,NNE,33,0.0,0.0,77,0.00,,,0.00,0,Wunderground v.1.15,2013-03-03 02:54:00,
2013-03-02 21:04:00,8.7,3.2,30.25,NNE,33,0.0,0.0,78,0.00,,,0.00,0,Wunderground v.1.15,2013-03-03 03:04:00,
2013-03-02 21:09:00,8.7,3.8,30.25,NNE,33,0.0,0.0,80,0.00,,,0.00,0,Wunderground v.1.15,2013-03-03 03:09:00,
2013-03-02 21:14:00,8.7,3.8,30.25,NNE,33,0.0,0.0,80,0.00,,,0.00,0,Wunderground v.1.15,2013-03-03 03:14:00,
2013-03-02 21:19:00,8.5,3.6,30.25,NNE,33,0.0,0.0,80,0.00,,,0.00,0,Wunderground v.1.15,2013-03-03 03:19:00,
2013-03-02 21:24:00,8.3,3.4,30.24,NNE,33,0.0,0.0,80,0.00,,,0.00,0,Wunderground v.1.15,2013-03-03 03:24:00,
2013-03-02 21:29:00,8.1,3.2,30.24,NNE,33,0.0,0.0,80,0.00,,,0.00,0,Wunderground v.1.15,2013-03-03 03:29:00,
2013-03-02 21:34:00,7.9,3.3,30.25,NNE,33,0.0,0.0,81,0.00,,,0.00,0,Wunderground v.1.15,2013-03-03 03:34:00,
2013-03-02 21:39:00,7.7,3.1,30.25,NNE,33,0.0,0.0,81,0.00,,,0.00,0,Wunderground v.1.15,2013-03-03 03:39:00,
2013-03-02 21:44:00,7.4,2.5,30.24,NNE,33,0.0,0.0,80,0.00,,,0.00,0,Wunderground v.1.15,2013-03-03 03:44:00,
2013-03-02 21:49:00,7.3,2.7,30.24,NNE,33,0.0,0.0,81,0.00,,,0.00,0,Wunderground v.1.15,2013-03-03 03:49:00,
2013-03-02 21:54:00,7.1,2.5,30.24,NNE,33,0.0,0.0,81,0.00,,,0.00,0,Wunderground v.1.15,2013-03-03 03:54:00,
2013-03-02 21:59:00,7.0,2.7,30.24,NNE,33,0.0,0.0,82,0.00,,,0.00,0,Wunderground v.1.15,2013-03-03 03:59:00,
2013-03-02 22:04:00,6.9,2.6,30.24,NNE,33,0.0,0.0,82,0.00,,,0.00,0,Wunderground v.1.15,2013-03-03 04:04:00,
2013-03-02 22:09:00,6.7,2.4,30.24,NNE,33,0.0,0.0,82,0.00,,,0.00,0,Wunderground v.1.15,2013-03-03 04:09:00,
2013-03-02 22:14:00,6.5,2.2,30.24,NNE,33,0.0,0.0,82,0.00,,,0.00,0,Wunderground v.1.15,2013-03-03 04:14:00,
2013-03-02 22:19:00,6.4,2.1,30.24,NNE,33,0.0,0.0,82,0.00,,,0.00,0,Wunderground v.1.15,2013-03-03 04:19:00,
2013-03-02 22:24:00,6.5,2.4,30.24,NNE,33,0.0,0.0,83,0.00,,,0.00,0,Wunderground v.1.15,2013-03-03 04:24:00,
2013-03-02 22:29:00,6.3,2.0,30.23,NNE,33,0.0,0.0,82,0.00,,,0.00,0,Wunderground v.1.15,2013-03-03 04:29:00,
2013-03-02 22:34:00,6.1,1.8,30.23,NNE,33,0.0,0.0,82,0.00,,,0.00,0,Wunderground v.1.15,2013-03-03 04:34:00,
2013-03-02 22:39:00,6.0,1.9,30.23,NNE,33,0.0,0.0,83,0.00,,,0.00,0,Wunderground v.1.15,2013-03-03 04:39:00,
2013-03-02 22:44:00,5.9,1.8,30.23,NNE,33,0.0,0.0,83,0.00,,,0.00,0,Wunderground v.1.15,2013-03-03 04:44:00,
2013-03-02 22:49:00,5.9,1.8,30.23,NNE,33,0.0,0.0,83,0.00,,,0.00,0,Wunderground v.1.15,2013-03-03 04:49:00,
2013-03-02 22:54:00,6.2,2.4,30.23,NNE,33,0.0,0.0,84,0.00,,,0.00,0,Wunderground v.1.15,2013-03-03 04:54:00,
2013-03-02 22:59:00,6.5,3.0,30.23,NNE,33,0.0,0.0,85,0.00,,,0.00,0,Wunderground v.1.15,2013-03-03 04:59:00,
2013-03-02 23:00:00,6.5,3.0,30.23,NNE,33,0.0,0.0,85,0.00,,,0.00,0,Wunderground v.1.15,2013-03-03 05:00:00,
2013-03-02 23:05:00,6.7,3.1,30.23,NNE,33,0.0,0.0,85,0.00,,,0.00,0,Wunderground v.1.15,2013-03-03 05:05:00,
2013-03-02 23:10:00,6.8,3.0,30.23,NNE,33,0.0,0.0,84,0.00,,,0.00,0,Wunderground v.1.15,2013-03-03 05:10:00,
2013-03-02 23:15:00,6.9,3.1,30.23,NNE,33,0.0,0.0,84,0.00,,,0.00,0,Wunderground v.1.15,2013-03-03 05:15:00,
2013-03-02 23:20:00,7.0,3.2,30.23,NNE,33,0.0,0.0,84,0.00,,,0.00,0,Wunderground v.1.15,2013-03-03 05:20:00,
2013-03-02 23:25:00,7.2,3.6,30.23,NNE,33,0.0,0.0,85,0.00,,,0.00,0,Wunderground v.1.15,2013-03-03 05:25:00,
2013-03-02 23:30:00,7.3,3.5,30.22,NNE,33,0.0,0.0,84,0.00,,,0.00,0,Wunderground v.1.15,2013-03-03 05:30:00,
2013-03-02 23:35:00,7.3,3.5,30.22,NNE,33,0.0,0.0,84,0.00,,,0.00,0,Wunderground v.1.15,2013-03-03 05:35:00,
2013-03-02 23:40:00,7.3,3.5,30.23,NNE,33,0.0,0.0,84,0.00,,,0.00,0,Wunderground v.1.15,2013-03-03 05:40:00,
2013-03-02 23:45:00,7.3,3.5,30.23,NNE,33,0.0,0.0,84,0.00,,,0.00,0,Wunderground v.1.15,2013-03-03 05:45:00,
2013-03-02 23:50:00,7.2,3.4,30.23,NNE,33,0.0,0.0,84,0.00,,,0.00,0,Wunderground v.1.15,2013-03-03 05:50:00,
2013-03-02 23:55:00,7.1,3.3,30.22,NNE,33,0.0,0.0,84,0.00,,,0.00,0,Wunderground v.1.15,2013-03-03 05:55:00,